When you browse on this site, cookies collect data to enhance your experience and personalize the content and advertising you see.
Visit our Privacy Policy to learn more. By continuing to use the site, you agree to this use of cookies and data.
  • In Switzerland
  • List of Countries
  • For 7 days
  • Water Temperature
  • Weather Map
  • Weather Widgets
  • user-avatar
    Login

    Hourly Weather Nurtingen

    Today, 6 June, Saturday

    Time Temperature Precipitation Wind Pressure Humidity
    00:00 +12°C° 0.4 mm 4 mps 728 mmHg 91%
    01:00 +12°C° 0 mm 3 mps 728 mmHg 93%
    02:00 +12°C° 1.1 mm 3 mps 727 mmHg 94%
    03:00 +12°C° 1.1 mm 3 mps 727 mmHg 94%
    04:00 +13°C° 1.1 mm 3 mps 727 mmHg 95%
    05:00 +13°C° 0.7 mm 4 mps 727 mmHg 94%
    06:00 +13°C° 0.7 mm 4 mps 727 mmHg 93%
    07:00 +13°C° 0.7 mm 4 mps 728 mmHg 92%
    08:00 +13°C° 0.4 mm 4 mps 728 mmHg 92%
    09:00 +13°C° 0.4 mm 4 mps 728 mmHg 91%
    10:00 +13°C° 0.4 mm 4 mps 728 mmHg 91%
    11:00 +13°C° 0.3 mm 4 mps 729 mmHg 90%
    12:00 +13°C° 0.3 mm 4 mps 729 mmHg 90%
    13:00 +13°C° 0.3 mm 3 mps 729 mmHg 89%
    14:00 +14°C° 0.1 mm 4 mps 729 mmHg 85%
    15:00 +15°C° 0.1 mm 4 mps 729 mmHg 81%
    16:00 +16°C° 0.1 mm 5 mps 729 mmHg 77%
    17:00 +17°C° 0 mm 4 mps 729 mmHg 78%
    18:00 +17°C° 0 mm 3 mps 729 mmHg 78%
    19:00 +16°C° 0 mm 2 mps 729 mmHg 79%
    20:00 +15°C° 0.1 mm 2 mps 730 mmHg 83%
    21:00 +14°C° 0.1 mm 2 mps 730 mmHg 86%
    22:00 +13°C° 0.1 mm 2 mps 730 mmHg 90%
    23:00 +13°C° 0.1 mm 2 mps 730 mmHg 90%

    Tomorrow, 7 June, Sunday

    Time Temperature Precipitation Wind Pressure Humidity
    00:00 +13°C° 0.1 mm 2 mps 730 mmHg 91%
    01:00 +13°C° 0.1 mm 2 mps 730 mmHg 91%
    02:00 +13°C° 0.3 mm 1 mps 730 mmHg 92%
    03:00 +12°C° 0.3 mm 1 mps 730 mmHg 93%
    04:00 +12°C° 0.3 mm 1 mps 730 mmHg 94%
    05:00 +12°C° 0.7 mm 1 mps 731 mmHg 93%
    06:00 +12°C° 0.7 mm 1 mps 731 mmHg 93%
    07:00 +12°C° 0.7 mm 1 mps 731 mmHg 92%
    08:00 +13°C° 0.1 mm 1 mps 732 mmHg 86%
    09:00 +14°C° 0.1 mm 1 mps 732 mmHg 79%
    10:00 +15°C° 0.1 mm 2 mps 733 mmHg 73%
    11:00 +16°C° 0 mm 2 mps 733 mmHg 67%
    12:00 +18°C° 0 mm 1 mps 733 mmHg 61%
    13:00 +19°C° 0 mm 1 mps 733 mmHg 55%
    14:00 +19°C° 0 mm 1 mps 733 mmHg 56%
    15:00 +19°C° 0 mm 1 mps 733 mmHg 58%
    16:00 +19°C° 0 mm 1 mps 733 mmHg 59%
    17:00 +18°C° 0.1 mm 1 mps 733 mmHg 65%
    18:00 +16°C° 0.1 mm 1 mps 733 mmHg 72%
    19:00 +15°C° 0.1 mm 1 mps 733 mmHg 78%
    20:00 +14°C° 0 mm 1 mps 733 mmHg 81%
    21:00 +12°C° 0 mm 1 mps 734 mmHg 85%
    22:00 +11°C° 0 mm 1 mps 734 mmHg 88%
    23:00 +11°C° 0 mm 1 mps 734 mmHg 88%

    Day after tomorrow, 8 June, Monday

    Time Temperature Precipitation Wind Pressure Humidity
    00:00 +9°C° 0 mm 0 mps 734 mmHg 88%
    01:00 +9°C° 0 mm 0 mps 734 mmHg 88%
    02:00 +8°C° 0 mm 0 mps 734 mmHg 88%
    03:00 +8°C° 0 mm 0 mps 734 mmHg 88%
    04:00 +8°C° 0 mm 0 mps 734 mmHg 88%
    05:00 +9°C° 0 mm 0 mps 734 mmHg 85%
    06:00 +11°C° 0 mm 0 mps 734 mmHg 81%
    07:00 +13°C° 0 mm 0 mps 734 mmHg 78%
    08:00 +14°C° 0.1 mm 0 mps 735 mmHg 72%
    09:00 +18°C° 0.1 mm 1 mps 735 mmHg 67%
    10:00 +19°C° 0.1 mm 1 mps 735 mmHg 61%
    11:00 +19°C° 0.1 mm 2 mps 735 mmHg 60%
    12:00 +19°C° 0.1 mm 2 mps 735 mmHg 58%
    13:00 +20°C° 0.1 mm 2 mps 734 mmHg 56%
    14:00 +20°C° 0.1 mm 2 mps 734 mmHg 58%
    15:00 +19°C° 0.1 mm 2 mps 734 mmHg 60%
    16:00 +19°C° 0.1 mm 2 mps 734 mmHg 61%
    17:00 +19°C° 0.1 mm 2 mps 734 mmHg 67%
    18:00 +18°C° 0.1 mm 2 mps 734 mmHg 72%
    19:00 +17°C° 0.1 mm 2 mps 734 mmHg 78%
    20:00 +16°C° 0 mm 2 mps 734 mmHg 79%
    21:00 +15°C° 0 mm 2 mps 735 mmHg 80%
    22:00 +14°C° 0 mm 1 mps 735 mmHg 82%
    23:00 +14°C° 0 mm 1 mps 735 mmHg 83%

    9 June, Tuesday

    Time Temperature Precipitation Wind Pressure Humidity
    00:00 +13°C° 0 mm 1 mps 735 mmHg 84%
    01:00 +13°C° 0 mm 1 mps 735 mmHg 85%
    02:00 +12°C° 0 mm 1 mps 735 mmHg 86%
    03:00 +12°C° 0 mm 1 mps 735 mmHg 86%
    04:00 +12°C° 0 mm 1 mps 735 mmHg 87%
    05:00 +13°C° 0 mm 1 mps 735 mmHg 86%
    06:00 +14°C° 0 mm 1 mps 735 mmHg 85%
    07:00 +14°C° 0 mm 1 mps 735 mmHg 84%
    08:00 +15°C° 0.1 mm 2 mps 735 mmHg 82%
    09:00 +16°C° 0.1 mm 2 mps 736 mmHg 81%
    10:00 +17°C° 0.1 mm 2 mps 736 mmHg 79%
    11:00 +18°C° 0.1 mm 3 mps 736 mmHg 74%
    12:00 +19°C° 0.1 mm 3 mps 736 mmHg 70%
    13:00 +20°C° 0.1 mm 3 mps 735 mmHg 65%
    14:00 +19°C° 0.1 mm 3 mps 735 mmHg 68%
    15:00 +19°C° 0.1 mm 3 mps 735 mmHg 70%
    16:00 +19°C° 0.1 mm 2 mps 735 mmHg 73%
    17:00 +18°C° 0.1 mm 2 mps 735 mmHg 76%
    18:00 +18°C° 0.1 mm 2 mps 735 mmHg 78%
    19:00 +18°C° 0.1 mm 1 mps 735 mmHg 81%
    20:00 +18°C° 0.1 mm 1 mps 736 mmHg 83%
    21:00 +16°C° 0.1 mm 1 mps 736 mmHg 85%
    22:00 +16°C° 0.1 mm 1 mps 736 mmHg 88%
    23:00 +15°C° 0.2 mm 1 mps 736 mmHg 89%

    10 June, Wednesday

    Time Temperature Precipitation Wind Pressure Humidity
    00:00 +15°C° 0.2 mm 1 mps 736 mmHg 91%
    01:00 +15°C° 0.2 mm 1 mps 736 mmHg 92%
    02:00 +15°C° 0.6 mm 2 mps 736 mmHg 93%
    03:00 +14°C° 0.6 mm 2 mps 736 mmHg 94%
    04:00 +14°C° 0.6 mm 2 mps 736 mmHg 96%
    05:00 +14°C° 1.4 mm 2 mps 736 mmHg 96%
    06:00 +14°C° 1.4 mm 2 mps 736 mmHg 96%
    07:00 +13°C° 1.4 mm 3 mps 736 mmHg 96%
    08:00 +13°C° 0.7 mm 3 mps 737 mmHg 95%
    09:00 +13°C° 0.7 mm 3 mps 737 mmHg 95%
    10:00 +13°C° 0.7 mm 3 mps 737 mmHg 94%
    11:00 +15°C° 0.1 mm 2 mps 737 mmHg 91%
    12:00 +16°C° 0.1 mm 2 mps 737 mmHg 89%
    13:00 +17°C° 0.1 mm 2 mps 737 mmHg 86%
    14:00 +17°C° 0.1 mm 2 mps 737 mmHg 87%
    15:00 +17°C° 0.1 mm 2 mps 737 mmHg 88%
    16:00 +18°C° 0.1 mm 1 mps 737 mmHg 89%
    17:00 +18°C° 0.1 mm 1 mps 737 mmHg 90%
    18:00 +18°C° 0.1 mm 1 mps 737 mmHg 90%
    19:00 +16°C° 0.1 mm 1 mps 737 mmHg 91%
    20:00 +16°C° 0.1 mm 1 mps 738 mmHg 91%
    21:00 +16°C° 0.1 mm 2 mps 738 mmHg 91%
    22:00 +16°C° 0.1 mm 2 mps 738 mmHg 90%
    23:00 +15°C° 0 mm 2 mps 738 mmHg 91%

    11 June, Thursday

    Time Temperature Precipitation Wind Pressure Humidity
    00:00 +14°C° 0 mm 2 mps 738 mmHg 92%
    01:00 +14°C° 0 mm 2 mps 738 mmHg 92%
    02:00 +13°C° 0 mm 2 mps 738 mmHg 93%
    03:00 +13°C° 0 mm 2 mps 738 mmHg 93%
    04:00 +12°C° 0 mm 2 mps 738 mmHg 93%
    05:00 +13°C° 0 mm 2 mps 738 mmHg 92%
    06:00 +14°C° 0 mm 2 mps 738 mmHg 92%
    07:00 +15°C° 0 mm 2 mps 738 mmHg 91%
    08:00 +16°C° 0 mm 3 mps 738 mmHg 86%
    09:00 +17°C° 0 mm 3 mps 738 mmHg 82%
    10:00 +18°C° 0 mm 3 mps 738 mmHg 78%
    11:00 +19°C° 0.3 mm 3 mps 738 mmHg 76%
    12:00 +19°C° 0.3 mm 4 mps 738 mmHg 75%
    13:00 +20°C° 0.3 mm 4 mps 738 mmHg 73%
    14:00 +19°C° 0.2 mm 3 mps 737 mmHg 75%
    15:00 +19°C° 0.2 mm 3 mps 737 mmHg 77%
    16:00 +19°C° 0.2 mm 2 mps 737 mmHg 79%
    17:00 +18°C° 0.1 mm 2 mps 737 mmHg 80%
    18:00 +18°C° 0.1 mm 2 mps 736 mmHg 82%
    19:00 +18°C° 0.1 mm 1 mps 736 mmHg 83%
    20:00 +16°C° 0 mm 1 mps 736 mmHg 84%
    21:00 +16°C° 0 mm 2 mps 736 mmHg 85%
    22:00 +15°C° 0 mm 2 mps 736 mmHg 86%
    23:00 +15°C° 0 mm 2 mps 736 mmHg 88%
    Show more